Le nostre stazioni meteo in Italia

Pubblicità
Il mio iltempo24.it
Forli, Italia (16147): Temperatura & dewpoint: 05.12.2018 02:00:00 - 11.12.2018 02:00:00 (CET)Forli, Italia (16147): velocità del vento: 05.12.2018 02:00:00 - 11.12.2018 02:00:00 (CET)Forli, Italia (16147): direzione del vento: 05.12.2018 02:00:00 - 11.12.2018 02:00:00 (CET)Forli, Italia (16147): visibility: 05.12.2018 02:00:00 - 11.12.2018 02:00:00 (CET)Forli, Italia (16147): precipitazioni: 05.12.2018 02:00:00 - 11.12.2018 02:00:00 (CET)
Data & Tempo tt [°C] td [°C] ff [km/h] ff [kn] dd vv [km] rr [mm]
11.12.2018 02:00:00 - - - - - - -
11.12.2018 01:00:00 6,6 -4,5 4 2 SO - 0,0
11.12.2018 00:00:00 - - - - - - -
10.12.2018 23:00:00 6,8 -3,7 9 5 OSO - 0,0
10.12.2018 22:00:00 8,2 -4,0 6 3 OSO - 0,0
10.12.2018 21:00:00 8,3 -3,2 7 4 OSO - 0,0
10.12.2018 20:00:00 10,5 -3,6 5 3 O - 0,0
10.12.2018 19:00:00 11,0 -3,1 8 4 O - 0,0
10.12.2018 18:00:00 11,3 -2,5 9 5 O 10 0,0
10.12.2018 17:00:00 11,6 -1,9 8 4 ONO 10 0,0
10.12.2018 16:00:00 13,1 -2,4 18 10 ONO 10 0,0
10.12.2018 15:00:00 13,5 -2,5 21 11 ONO 10 0,0
10.12.2018 14:00:00 14,3 -3,5 22 12 NO 10 0,0
10.12.2018 13:00:00 14,4 -3,4 21 11 NO 10 0,0
10.12.2018 12:00:00 14,3 -4,0 24 13 ONO 10 0,0
10.12.2018 11:00:00 13,8 -3,5 18 10 ONO 10 0,0
10.12.2018 10:00:00 13,1 -3,7 18 10 ONO 10 0,0
10.12.2018 09:00:00 11,1 -2,3 12 6 ONO - 0,0
10.12.2018 08:00:00 10,1 -1,3 16 9 ONO - 0,0
10.12.2018 07:00:00 8,2 -0,3 12 6 ONO - 0,0
10.12.2018 06:00:00 10,3 -0,8 7 4 NO - 0,0
10.12.2018 05:00:00 10,8 -1,6 6 4 O - 0,0
10.12.2018 04:00:00 10,9 -1,8 9 5 ONO - 0,0
10.12.2018 03:00:00 11,3 -1,8 5 3 O - 0,0
10.12.2018 02:00:00 12,5 -2,6 15 8 ONO - 0,0
10.12.2018 01:00:00 12,6 -3,3 13 7 O - 0,0
10.12.2018 00:00:00 11,2 -2,3 8 4 OSO - 0,0
09.12.2018 23:00:00 11,9 -2,0 7 4 O - 0,0
09.12.2018 22:00:00 11,0 0,4 10 5 O - 0,0
09.12.2018 21:00:00 7,4 3,6 3 1 OSO - 0,0
09.12.2018 20:00:00 7,1 3,9 4 2 S - 0,0
09.12.2018 19:00:00 7,8 3,8 3 2 SO - 0,0
09.12.2018 18:00:00 8,2 3,1 8 5 SO - 0,0
09.12.2018 17:00:00 8,2 4,0 7 4 O - 0,0
09.12.2018 16:00:00 8,3 5,2 5 3 O - 0,0
09.12.2018 15:00:00 8,9 4,1 14 7 NNO - 0,0
09.12.2018 14:00:00 9,7 3,9 11 6 NO - 0,0
09.12.2018 13:00:00 13,6 6,0 23 13 NNO - 0,0
09.12.2018 12:00:00 17,3 6,8 26 14 OSO - 0,0
09.12.2018 11:00:00 16,8 7,2 15 8 OSO - 0,0
09.12.2018 10:00:00 16,0 - 11 6 OSO - 0,0
09.12.2018 09:00:00 14,6 6,7 - - - - -
09.12.2018 08:00:00 13,9 6,3 - - - - 0,0
09.12.2018 07:00:00 13,7 5,1 4 2 N - 0,0
09.12.2018 06:00:00 13,5 4,1 10 5 OSO - 0,0
09.12.2018 05:00:00 12,7 3,9 17 9 SO - 0,0
09.12.2018 04:00:00 10,6 3,2 3 2 SSE - 0,0
09.12.2018 03:00:00 7,6 -0,6 5 3 S - 0,0
09.12.2018 02:00:00 9,0 -2,6 10 5 SSO - 0,0
09.12.2018 01:00:00 7,2 -2,8 10 5 S - 0,0
09.12.2018 00:00:00 6,7 -2,7 10 5 S - 0,0
08.12.2018 23:00:00 6,7 -2,5 10 5 S - 0,0
08.12.2018 22:00:00 5,9 -0,6 7 4 S - 0,0
08.12.2018 21:00:00 6,5 -0,3 9 5 S - 0,0
08.12.2018 20:00:00 7,0 1,5 6 4 SSO - 0,0
08.12.2018 19:00:00 7,6 2,5 9 5 SSO - 0,0
08.12.2018 18:00:00 9,0 3,6 7 4 S - 0,0
08.12.2018 17:00:00 10,9 4,1 5 3 S - 0,0
08.12.2018 16:00:00 12,3 2,7 0 0 NE - 0,0
08.12.2018 15:00:00 12,4 2,8 8 4 N - 0,0
08.12.2018 14:00:00 12,6 2,2 9 5 NNO - 0,0
08.12.2018 13:00:00 12,5 2,1 10 6 NNO - 0,0
08.12.2018 12:00:00 11,7 3,2 19 10 ONO - 0,0
08.12.2018 11:00:00 8,9 6,0 11 6 ONO - 0,0
08.12.2018 10:00:00 8,4 6,2 18 10 NO - 0,0
08.12.2018 09:00:00 7,7 5,8 3 2 O - 0,0
08.12.2018 08:00:00 7,6 5,6 11 6 ONO - 0,0
08.12.2018 07:00:00 7,4 5,9 8 5 O - 2,8
08.12.2018 06:00:00 6,9 6,0 26 14 ONO - 2,0
08.12.2018 05:00:00 13,8 7,3 12 7 NO - 0,0
08.12.2018 04:00:00 14,5 7,5 5 3 SO - 0,0
08.12.2018 03:00:00 14,5 7,1 9 5 SSO - 0,0
08.12.2018 02:00:00 14,4 7,0 8 5 SSO - 0,0
08.12.2018 01:00:00 12,5 8,2 9 5 S - 0,0
08.12.2018 00:00:00 11,6 8,1 8 5 S - 0,0
07.12.2018 23:00:00 8,2 7,0 7 4 SSE - 0,0
07.12.2018 22:00:00 8,2 7,0 3 1 S - 0,0
07.12.2018 21:00:00 8,0 6,9 2 1 SE - 0,0
07.12.2018 20:00:00 8,0 6,8 9 5 ESE - 0,0
07.12.2018 19:00:00 8,0 6,8 6 4 E - 0,0
07.12.2018 18:00:00 8,5 7,0 2 1 - 5 0,0
07.12.2018 17:00:00 9,4 7,2 0 0 N 5 -
07.12.2018 16:00:00 9,9 7,3 0 0 N 5 0,0
07.12.2018 15:00:00 9,8 7,2 0 0 N 5 0,0
07.12.2018 14:00:00 9,5 6,9 0 0 N 5 0,0
07.12.2018 13:00:00 8,7 6,7 2 1 - 7 0,0
07.12.2018 12:00:00 8,5 6,6 0 0 N 7 0,0
07.12.2018 11:00:00 8,6 6,4 0 0 N 7 0,0
07.12.2018 10:00:00 7,8 5,9 3 2 SO 7 0,0
07.12.2018 09:00:00 6,6 5,1 3 1 OSO - 0,0
07.12.2018 08:00:00 6,2 4,8 3 2 OSO - 0,0
07.12.2018 07:00:00 6,3 4,9 - - - - 0,0
07.12.2018 06:00:00 6,3 4,9 0 0 SO - 0,0
07.12.2018 05:00:00 6,8 5,3 3 1 OSO - 0,0
07.12.2018 04:00:00 7,4 5,9 2 1 SO - 0,0
07.12.2018 03:00:00 8,1 6,4 3 1 SSO - 0,0
07.12.2018 02:00:00 8,7 6,8 0 0 S - 0,0
07.12.2018 01:00:00 8,5 6,8 4 2 S - 0,0
07.12.2018 00:00:00 8,2 6,8 5 3 S - 0,0
06.12.2018 23:00:00 8,2 6,5 0 0 OSO - 0,0
06.12.2018 22:00:00 8,0 6,3 - - - - 0,0
06.12.2018 21:00:00 8,0 5,6 11 6 NO - 0,0
06.12.2018 20:00:00 8,4 6,2 9 5 NO - 0,0
06.12.2018 19:00:00 8,2 6,0 4 2 SO - 0,0
06.12.2018 18:00:00 7,9 5,4 4 2 - 6 0,0
06.12.2018 17:00:00 7,9 4,8 9 5 ONO 6 0,0
06.12.2018 16:00:00 7,9 5,0 18 10 NO 6 0,0
06.12.2018 15:00:00 8,4 6,5 4 2 - 1,6 0,0
06.12.2018 14:00:00 8,5 6,6 5 3 - 1,6 0,0
06.12.2018 13:00:00 8,2 6,7 9 5 ONO 1,6 0,0
06.12.2018 12:00:00 8,4 6,4 4 2 - 1,6 -
06.12.2018 11:00:00 8,0 6,1 0 0 N 1,5 0,0
06.12.2018 10:00:00 7,9 5,9 0 0 N 1,6 0,0
06.12.2018 09:00:00 7,2 5,5 4 2 OSO - 0,0
06.12.2018 08:00:00 6,9 5,4 2 1 SO - 0,0
06.12.2018 07:00:00 6,6 5,1 - - - - 0,0
06.12.2018 06:00:00 6,5 5,1 - - - - 0,0
06.12.2018 05:00:00 6,6 4,9 4 2 OSO - 0,0
06.12.2018 04:00:00 6,9 5,2 4 2 SO - 0,0
06.12.2018 03:00:00 6,9 5,1 - - - - -
06.12.2018 02:00:00 6,6 4,9 1 1 OSO - 0,0
06.12.2018 01:00:00 6,7 4,9 - - - - -
06.12.2018 00:00:00 7,3 5,1 - - - - 0,0
05.12.2018 23:00:00 7,2 5,2 0 0 S - 0,0
05.12.2018 22:00:00 6,9 4,9 - - - - 0,0
05.12.2018 21:00:00 7,2 5,3 3 2 OSO - 0,0
05.12.2018 20:00:00 7,4 5,4 - - - - 0,0
05.12.2018 19:00:00 7,9 5,7 3 2 SO - 0,0
05.12.2018 18:00:00 9,5 6,6 0 0 N 2,0 0,0
05.12.2018 17:00:00 9,8 6,5 0 0 N 2,0 0,0
05.12.2018 16:00:00 10,2 6,7 0 0 N 3,0 0,0
05.12.2018 15:00:00 10,2 6,5 2 1 - 4,0 0,0
05.12.2018 14:00:00 10,1 6,3 2 1 - 5 0,0
05.12.2018 13:00:00 9,8 5,8 2 1 - 6 0,0
05.12.2018 12:00:00 9,4 5,4 4 2 - 10 0,0
05.12.2018 11:00:00 9,1 4,5 0 0 N 10 0,0
05.12.2018 10:00:00 7,0 4,1 6 3 OSO 10 0,0
05.12.2018 09:00:00 4,9 2,6 2 1 OSO - 0,0
05.12.2018 08:00:00 4,2 1,9 - - - - 0,0
05.12.2018 07:00:00 4,5 - - - - - 0,0
05.12.2018 06:00:00 4,4 2,4 5 3 SSE - 0,0
05.12.2018 05:00:00 4,7 2,6 5 3 S - 0,0
05.12.2018 04:00:00 5,1 3,1 3 2 ESE - 0,0
05.12.2018 03:00:00 5,6 3,1 3 2 S - 0,0
05.12.2018 02:00:00 5,6 3,4 - - - - 0,0

tt = Temperatura
td = dewpoint
ff = velocità del vento
dd = direzione del vento
vv = visibility
rr = precipitazioni

Stazioni seguenti

WeatherPro
AMSI
MeteoEarth